TimeEST,TemperatureF,Dew PointF,Humidity,Sea Level PressureIn,VisibilityMPH,Wind Direction,Wind SpeedMPH,Gust SpeedMPH,PrecipitationIn,Events,Conditions,WindDirDegrees,DateUTC
12:02 AM,57.2,53.6,88,29.71,10.0,WSW,20.7,33.4,N/A,,Overcast,250,2012-12-10 05:02:00
12:10 AM,57.2,53.6,88,29.72,10.0,West,15.0,28.8,N/A,,Overcast,260,2012-12-10 05:10:00
12:23 AM,57.2,53.6,88,29.72,7.0,WSW,11.5,-,0.01,Rain,Rain,250,2012-12-10 05:23:00
12:53 AM,55.0,53.1,93,29.73,10.0,WSW,10.4,-,0.02,Rain,Light Rain,240,2012-12-10 05:53:00
1:53 AM,54.0,52.0,93,29.68,6.0,SSW,11.5,-,0.03,Rain,Light Rain,200,2012-12-10 06:53:00
2:53 AM,55.0,52.0,89,29.69,7.0,SSW,11.5,-,0.07,Rain,Light Rain,210,2012-12-10 07:53:00
3:31 AM,55.4,51.8,88,29.66,10.0,SW,8.1,-,0.01,,Overcast,220,2012-12-10 08:31:00
3:53 AM,55.0,52.0,89,29.68,9.0,SW,11.5,18.4,0.01,Rain,Light Rain,220,2012-12-10 08:53:00
4:05 AM,55.4,51.8,88,29.67,10.0,SW,9.2,18.4,0.00,Rain,Light Rain,220,2012-12-10 09:05:00
4:53 AM,55.0,52.0,89,29.66,10.0,SW,10.4,-,0.00,,Overcast,230,2012-12-10 09:53:00
5:53 AM,55.0,53.1,93,29.65,10.0,SW,6.9,-,0.02,,Overcast,230,2012-12-10 10:53:00
6:25 AM,55.4,53.6,94,29.65,7.0,WSW,6.9,-,N/A,,Overcast,240,2012-12-10 11:25:00
6:53 AM,50.0,48.0,93,29.67,8.0,NW,11.5,19.6,N/A,,Overcast,310,2012-12-10 11:53:00
7:01 AM,50.0,46.4,87,29.66,7.0,NW,10.4,-,N/A,,Overcast,320,2012-12-10 12:01:00
7:08 AM,50.0,46.4,87,29.67,8.0,NW,9.2,-,N/A,,Overcast,310,2012-12-10 12:08:00
7:16 AM,50.0,46.4,87,29.67,9.0,NW,8.1,-,N/A,,Overcast,320,2012-12-10 12:16:00
7:53 AM,50.0,46.0,86,29.67,8.0,Calm,Calm,-,N/A,,Overcast,0,2012-12-10 12:53:00
8:06 AM,48.2,46.4,93,29.68,8.0,Calm,Calm,-,N/A,,Overcast,0,2012-12-10 13:06:00
8:31 AM,48.2,46.4,93,29.67,7.0,West,3.5,-,N/A,,Overcast,280,2012-12-10 13:31:00
8:49 AM,48.2,44.6,87,29.68,6.0,NW,5.8,-,N/A,,Overcast,310,2012-12-10 13:49:00
8:53 AM,48.9,46.0,90,29.68,6.0,NW,4.6,-,N/A,,Overcast,320,2012-12-10 13:53:00
9:38 AM,48.2,44.6,87,29.68,4.0,NW,8.1,-,0.00,,Overcast,310,2012-12-10 14:38:00
9:53 AM,46.0,43.0,89,29.68,3.0,NW,12.7,23.0,0.00,,Overcast,320,2012-12-10 14:53:00
10:35 AM,44.6,42.8,93,29.68,2.5,NNW,10.4,-,0.01,Rain,Light Rain,330,2012-12-10 15:35:00
10:45 AM,44.6,41.0,87,29.67,1.8,NNW,9.2,-,0.03,Rain,Rain,330,2012-12-10 15:45:00
10:53 AM,44.1,41.0,89,29.69,1.8,NW,10.4,-,0.04,Rain,Light Rain,320,2012-12-10 15:53:00
10:58 AM,42.8,41.0,93,29.69,2.5,NW,11.5,-,0.00,Rain,Light Rain,310,2012-12-10 15:58:00
11:11 AM,42.8,39.2,87,29.69,4.0,NW,13.8,-,0.01,Rain,Light Rain,320,2012-12-10 16:11:00
11:53 AM,42.1,39.9,92,29.67,5.0,NNW,8.1,-,0.01,,Overcast,330,2012-12-10 16:53:00
12:26 PM,41.0,37.4,87,29.69,5.0,NW,8.1,-,0.00,Rain,Light Rain,310,2012-12-10 17:26:00
12:38 PM,41.0,37.4,87,29.69,3.0,NW,9.2,-,0.01,Rain,Rain,310,2012-12-10 17:38:00
12:46 PM,41.0,37.4,87,29.68,3.0,NW,6.9,-,0.02,Rain,Light Rain,310,2012-12-10 17:46:00
12:53 PM,41.0,37.0,86,29.69,5.0,NW,13.8,19.6,0.02,Rain,Light Rain,320,2012-12-10 17:53:00
1:11 PM,39.2,35.6,87,29.69,7.0,NW,11.5,-,0.00,,Overcast,310,2012-12-10 18:11:00
1:53 PM,39.9,36.0,86,29.68,7.0,NW,10.4,-,0.00,,Overcast,310,2012-12-10 18:53:00
2:09 PM,39.2,35.6,87,29.68,7.0,NW,5.8,-,0.00,,Overcast,310,2012-12-10 19:09:00
2:45 PM,39.2,35.6,87,29.68,8.0,NW,5.8,-,0.00,,Overcast,310,2012-12-10 19:45:00
2:53 PM,39.9,35.1,83,29.69,8.0,NW,6.9,-,0.00,,Overcast,310,2012-12-10 19:53:00
3:53 PM,39.9,34.0,79,29.71,7.0,NW,10.4,-,N/A,,Overcast,310,2012-12-10 20:53:00
4:53 PM,37.0,33.1,86,29.75,8.0,WNW,9.2,19.6,0.00,Rain,Light Rain,300,2012-12-10 21:53:00
5:11 PM,37.4,33.8,87,29.74,6.0,NW,9.2,-,0.01,Rain,Light Rain,320,2012-12-10 22:11:00
5:20 PM,35.6,32.0,87,29.76,5.0,WNW,8.1,-,0.01,Rain,Light Rain,300,2012-12-10 22:20:00
5:37 PM,35.6,32.0,87,29.76,7.0,WNW,4.6,-,0.01,,Overcast,300,2012-12-10 22:37:00
5:46 PM,35.6,32.0,87,29.76,6.0,WNW,4.6,-,0.01,,Overcast,290,2012-12-10 22:46:00
5:53 PM,35.1,32.0,89,29.78,5.0,Variable,5.8,-,0.02,,Overcast,0,2012-12-10 22:53:00
6:17 PM,33.8,30.2,87,29.78,2.0,WNW,9.2,-,0.00,Snow,Light Snow,290,2012-12-10 23:17:00
6:25 PM,33.8,30.2,87,29.77,1.0,NW,8.1,-,0.01,Snow,Light Snow,310,2012-12-10 23:25:00
6:32 PM,33.8,30.2,87,29.76,1.0,NW,5.8,-,0.01,Snow,Light Snow,320,2012-12-10 23:32:00
6:40 PM,33.8,30.2,87,29.78,1.8,West,6.9,-,0.01,Snow,Light Snow,280,2012-12-10 23:40:00
6:44 PM,33.8,30.2,87,29.79,2.5,West,5.8,-,0.01,Snow,Light Snow,280,2012-12-10 23:44:00
6:47 PM,33.8,30.2,87,29.79,3.0,West,4.6,-,0.01,Snow,Light Snow,280,2012-12-10 23:47:00
6:53 PM,33.1,30.9,92,29.80,4.0,West,5.8,-,0.01,Snow,Light Snow,280,2012-12-10 23:53:00
7:53 PM,33.1,30.0,89,29.79,6.0,West,4.6,-,0.00,,Overcast,280,2012-12-11 00:53:00
8:06 PM,33.8,30.2,87,29.80,6.0,West,5.8,-,N/A,,Overcast,280,2012-12-11 01:06:00
8:53 PM,34.0,30.0,85,29.85,7.0,West,6.9,-,N/A,,Overcast,280,2012-12-11 01:53:00
9:37 PM,33.8,30.2,87,29.85,7.0,West,8.1,-,N/A,,Overcast,280,2012-12-11 02:37:00
9:51 PM,33.8,30.2,87,29.86,7.0,West,6.9,-,N/A,,Overcast,280,2012-12-11 02:51:00
9:53 PM,34.0,30.0,85,29.88,7.0,West,5.8,-,N/A,,Overcast,280,2012-12-11 02:53:00
10:50 PM,33.8,30.2,87,29.87,7.0,West,6.9,-,N/A,,Overcast,280,2012-12-11 03:50:00
10:53 PM,34.0,30.0,85,29.89,7.0,West,5.8,-,N/A,,Overcast,280,2012-12-11 03:53:00
11:53 PM,34.0,30.0,85,29.91,6.0,West,8.1,-,N/A,,Overcast,280,2012-12-11 04:53:00